owner,sensor,date,latitude,longitude,vertical_datum,sea_water_temperature,qcFlag
BP,ioos:station:wmo:42369:1,2021-08-01T00:39:00Z,27.2166,-90.2840,2.0,30.2,11111222
BP,ioos:station:wmo:42369:1,2021-08-01T00:59:00Z,27.2167,-90.2841,2.0,30.2,11111222
BP,ioos:station:wmo:42369:1,2021-08-01T01:19:00Z,27.2167,-90.2841,2.0,30.2,11111222
BP,ioos:station:wmo:42369:1,2021-08-01T01:39:00Z,27.2167,-90.2841,2.0,30.2,11111222
BP,ioos:station:wmo:42369:1,2021-08-01T01:59:00Z,27.2167,-90.2841,2.0,30.1,11111222
BP,ioos:station:wmo:42369:1,2021-08-01T02:19:00Z,27.2166,-90.2842,2.0,30.0,11111222
BP,ioos:station:wmo:42369:1,2021-08-01T02:39:00Z,27.2166,-90.2842,2.0,30.1,11111222
BP,ioos:station:wmo:42369:1,2021-08-01T02:59:00Z,27.2166,-90.2842,2.0,30.1,11111222
BP,ioos:station:wmo:42369:1,2021-08-01T03:19:00Z,27.2166,-90.2842,2.0,30.1,11111222
BP,ioos:station:wmo:42369:1,2021-08-01T03:39:00Z,27.2165,-90.2843,2.0,30.1,11111222
BP,ioos:station:wmo:42369:1,2021-08-01T03:59:00Z,27.2165,-90.2845,2.0,30.1,11111222
BP,ioos:station:wmo:42369:1,2021-08-01T04:19:00Z,27.2164,-90.2846,2.0,30.1,11111222
BP,ioos:station:wmo:42369:1,2021-08-01T04:39:00Z,27.2164,-90.2847,2.0,30.1,11111222
BP,ioos:station:wmo:42369:1,2021-08-01T04:59:00Z,27.2164,-90.2848,2.0,30.0,11111222
BP,ioos:station:wmo:42369:1,2021-08-01T05:19:00Z,27.2164,-90.2849,2.0,30.0,11111222
BP,ioos:station:wmo:42369:1,2021-08-01T05:39:00Z,27.2164,-90.2851,2.0,30.1,11111222
BP,ioos:station:wmo:42369:1,2021-08-01T05:59:00Z,27.2164,-90.2851,2.0,30.1,11111222
BP,ioos:station:wmo:42369:1,2021-08-01T06:19:00Z,27.2164,-90.2851,2.0,30.1,11111222
BP,ioos:station:wmo:42369:1,2021-08-01T06:39:00Z,27.2164,-90.2851,2.0,30.1,11111222
BP,ioos:station:wmo:42369:1,2021-08-01T06:59:00Z,27.2164,-90.2852,2.0,30.1,11111222
BP,ioos:station:wmo:42369:1,2021-08-01T07:19:00Z,27.2164,-90.2853,2.0,30.0,11111222
BP,ioos:station:wmo:42369:1,2021-08-01T07:39:00Z,27.2164,-90.2853,2.0,30.1,11111222
BP,ioos:station:wmo:42369:1,2021-08-01T07:59:00Z,27.2164,-90.2854,2.0,30.1,11111222
BP,ioos:station:wmo:42369:1,2021-08-01T08:19:00Z,27.2164,-90.2855,2.0,30.2,11111222
BP,ioos:station:wmo:42369:1,2021-08-01T08:39:00Z,27.2164,-90.2856,2.0,30.1,11111222
BP,ioos:station:wmo:42369:1,2021-08-01T08:59:00Z,27.2164,-90.2856,2.0,30.1,11111222
BP,ioos:station:wmo:42369:1,2021-08-01T09:19:00Z,27.2163,-90.2856,2.0,30.1,11111222
BP,ioos:station:wmo:42369:1,2021-08-01T09:39:00Z,27.2163,-90.2857,2.0,30.1,11111222
BP,ioos:station:wmo:42369:1,2021-08-01T09:59:00Z,27.2163,-90.2858,2.0,30.1,11111222
BP,ioos:station:wmo:42369:1,2021-08-01T10:19:00Z,27.2163,-90.2858,2.0,30.1,11111222
BP,ioos:station:wmo:42369:1,2021-08-01T10:39:00Z,27.2163,-90.2859,2.0,30.1,11111222
BP,ioos:station:wmo:42369:1,2021-08-01T10:59:00Z,27.2163,-90.2859,2.0,30.1,11111222
BP,ioos:station:wmo:42369:1,2021-08-01T11:19:00Z,27.2163,-90.2860,2.0,30.0,11111222
BP,ioos:station:wmo:42369:1,2021-08-01T11:39:00Z,27.2163,-90.2860,2.0,30.1,11111222
BP,ioos:station:wmo:42369:1,2021-08-01T11:59:00Z,27.2163,-90.2861,2.0,30.0,11111222
BP,ioos:station:wmo:42369:1,2021-08-01T12:19:00Z,27.2163,-90.2862,2.0,30.0,11111222
BP,ioos:station:wmo:42369:1,2021-08-01T12:39:00Z,27.2163,-90.2862,2.0,30.0,11111222
BP,ioos:station:wmo:42369:1,2021-08-01T12:59:00Z,27.2163,-90.2863,2.0,30.0,11111222
BP,ioos:station:wmo:42369:1,2021-08-01T13:19:00Z,27.2163,-90.2863,2.0,30.0,11111222
BP,ioos:station:wmo:42369:1,2021-08-01T13:39:00Z,27.2163,-90.2864,2.0,29.9,11111222
BP,ioos:station:wmo:42369:1,2021-08-01T13:59:00Z,27.2163,-90.2864,2.0,30.0,11111222
BP,ioos:station:wmo:42369:1,2021-08-01T14:19:00Z,27.2163,-90.2864,2.0,30.0,11111222
BP,ioos:station:wmo:42369:1,2021-08-01T14:39:00Z,27.2163,-90.2864,2.0,30.0,11111222
BP,ioos:station:wmo:42369:1,2021-08-01T14:59:00Z,27.2163,-90.2865,2.0,30.1,11111222
BP,ioos:station:wmo:42369:1,2021-08-01T15:19:00Z,27.2163,-90.2865,2.0,30.1,11111222
BP,ioos:station:wmo:42369:1,2021-08-01T15:39:00Z,27.2163,-90.2865,2.0,30.1,11111222
BP,ioos:station:wmo:42369:1,2021-08-01T15:59:00Z,27.2163,-90.2865,2.0,30.1,11111222
BP,ioos:station:wmo:42369:1,2021-08-01T16:19:00Z,27.2163,-90.2865,2.0,30.2,11111222
BP,ioos:station:wmo:42369:1,2021-08-01T16:39:00Z,27.2163,-90.2865,2.0,30.2,11111222
BP,ioos:station:wmo:42369:1,2021-08-01T16:59:00Z,27.2163,-90.2865,2.0,30.3,11111222
BP,ioos:station:wmo:42369:1,2021-08-01T17:19:00Z,27.2163,-90.2865,2.0,30.3,11111222
BP,ioos:station:wmo:42369:1,2021-08-01T17:39:00Z,27.2163,-90.2865,2.0,30.3,11111222
BP,ioos:station:wmo:42369:1,2021-08-01T17:59:00Z,27.2164,-90.2864,2.0,30.4,11111222
BP,ioos:station:wmo:42369:1,2021-08-01T18:19:00Z,27.2164,-90.2865,2.0,30.4,11111222
BP,ioos:station:wmo:42369:1,2021-08-01T18:39:00Z,27.2163,-90.2865,2.0,30.4,11111222
BP,ioos:station:wmo:42369:1,2021-08-01T18:59:00Z,27.2163,-90.2866,2.0,30.4,11111222
BP,ioos:station:wmo:42369:1,2021-08-01T19:19:00Z,27.2163,-90.2866,2.0,30.4,11111222
BP,ioos:station:wmo:42369:1,2021-08-01T19:39:00Z,27.2163,-90.2866,2.0,30.5,11111222
BP,ioos:station:wmo:42369:1,2021-08-01T19:59:00Z,27.2163,-90.2867,2.0,30.5,11111222
BP,ioos:station:wmo:42369:1,2021-08-01T20:19:00Z,27.2162,-90.2868,2.0,30.5,11111222
BP,ioos:station:wmo:42369:1,2021-08-01T20:39:00Z,27.2162,-90.2869,2.0,30.5,11111222
BP,ioos:station:wmo:42369:1,2021-08-01T20:59:00Z,27.2161,-90.2870,2.0,30.5,11111222
BP,ioos:station:wmo:42369:1,2021-08-01T21:19:00Z,27.2161,-90.2871,2.0,30.5,11111222
BP,ioos:station:wmo:42369:1,2021-08-01T21:39:00Z,27.2161,-90.2871,2.0,30.5,11111222
BP,ioos:station:wmo:42369:1,2021-08-01T21:59:00Z,27.2160,-90.2872,2.0,30.4,11111222
BP,ioos:station:wmo:42369:1,2021-08-01T22:19:00Z,27.2160,-90.2873,2.0,30.4,11111222
BP,ioos:station:wmo:42369:1,2021-08-01T22:39:00Z,27.2159,-90.2874,2.0,30.4,11111222
BP,ioos:station:wmo:42369:1,2021-08-01T22:59:00Z,27.2158,-90.2875,2.0,30.5,11111222
BP,ioos:station:wmo:42369:1,2021-08-01T23:19:00Z,27.2158,-90.2876,2.0,30.4,11111222
BP,ioos:station:wmo:42369:1,2021-08-01T23:39:00Z,27.2157,-90.2877,2.0,30.4,11111222
BP,ioos:station:wmo:42369:1,2021-08-01T23:59:00Z,27.2157,-90.2878,2.0,30.4,11111222
BP,ioos:station:wmo:42369:1,2021-08-02T00:19:00Z,27.2157,-90.2879,2.0,30.3,11111222
BP,ioos:station:wmo:42369:1,2021-08-02T00:39:00Z,27.2156,-90.2880,2.0,30.2,11111222
BP,ioos:station:wmo:42369:1,2021-08-02T00:59:00Z,27.2156,-90.2881,2.0,30.1,11111222
BP,ioos:station:wmo:42369:1,2021-08-02T01:19:00Z,27.2156,-90.2881,2.0,30.1,11111222
BP,ioos:station:wmo:42369:1,2021-08-02T01:39:00Z,27.2155,-90.2882,2.0,30.1,11111222
BP,ioos:station:wmo:42369:1,2021-08-02T01:59:00Z,27.2155,-90.2883,2.0,30.1,11111222
BP,ioos:station:wmo:42369:1,2021-08-02T02:19:00Z,27.2154,-90.2884,2.0,30.2,11111222
BP,ioos:station:wmo:42369:1,2021-08-02T02:39:00Z,27.2154,-90.2885,2.0,30.1,11111222
BP,ioos:station:wmo:42369:1,2021-08-02T02:59:00Z,27.2153,-90.2886,2.0,30.1,11111222
BP,ioos:station:wmo:42369:1,2021-08-02T03:19:00Z,27.2153,-90.2886,2.0,30.1,11111222
BP,ioos:station:wmo:42369:1,2021-08-02T03:39:00Z,27.2153,-90.2887,2.0,30.1,11111222
BP,ioos:station:wmo:42369:1,2021-08-02T03:59:00Z,27.2152,-90.2887,2.0,30.2,11111222
BP,ioos:station:wmo:42369:1,2021-08-02T04:19:00Z,27.2152,-90.2888,2.0,30.2,11111222
BP,ioos:station:wmo:42369:1,2021-08-02T04:39:00Z,27.2152,-90.2888,2.0,30.0,11111222
BP,ioos:station:wmo:42369:1,2021-08-02T04:59:00Z,27.2153,-90.2888,2.0,30.0,11111222
BP,ioos:station:wmo:42369:1,2021-08-02T05:19:00Z,27.2153,-90.2889,2.0,29.9,11111222
BP,ioos:station:wmo:42369:1,2021-08-02T05:39:00Z,27.2153,-90.2889,2.0,30.0,11111222
BP,ioos:station:wmo:42369:1,2021-08-02T05:59:00Z,27.2153,-90.2889,2.0,29.9,11111222
BP,ioos:station:wmo:42369:1,2021-08-02T06:19:00Z,27.2153,-90.2889,2.0,29.9,11111222
BP,ioos:station:wmo:42369:1,2021-08-02T06:39:00Z,27.2153,-90.2889,2.0,30.1,11111222
BP,ioos:station:wmo:42369:1,2021-08-02T06:59:00Z,27.2153,-90.2889,2.0,29.9,11111222
BP,ioos:station:wmo:42369:1,2021-08-02T07:19:00Z,27.2153,-90.2889,2.0,29.8,11111222
BP,ioos:station:wmo:42369:1,2021-08-02T07:39:00Z,27.2153,-90.2889,2.0,30.0,11111222
BP,ioos:station:wmo:42369:1,2021-08-02T07:59:00Z,27.2153,-90.2889,2.0,30.0,11111222
BP,ioos:station:wmo:42369:1,2021-08-02T08:19:00Z,27.2153,-90.2889,2.0,30.1,11111222
BP,ioos:station:wmo:42369:1,2021-08-02T08:39:00Z,27.2153,-90.2889,2.0,30.1,11111222
BP,ioos:station:wmo:42369:1,2021-08-02T08:59:00Z,27.2153,-90.2890,2.0,30.1,11111222
BP,ioos:station:wmo:42369:1,2021-08-02T09:19:00Z,27.2152,-90.2890,2.0,30.0,11111222
BP,ioos:station:wmo:42369:1,2021-08-02T09:39:00Z,27.2152,-90.2891,2.0,30.0,11111222
BP,ioos:station:wmo:42369:1,2021-08-02T09:59:00Z,27.2152,-90.2891,2.0,29.8,11111222
BP,ioos:station:wmo:42369:1,2021-08-02T10:19:00Z,27.2152,-90.2891,2.0,29.9,11111222
BP,ioos:station:wmo:42369:1,2021-08-02T10:39:00Z,27.2152,-90.2891,2.0,29.9,11111222
BP,ioos:station:wmo:42369:1,2021-08-02T10:59:00Z,27.2152,-90.2891,2.0,29.9,11111222
BP,ioos:station:wmo:42369:1,2021-08-02T11:19:00Z,27.2152,-90.2891,2.0,29.8,11111222
BP,ioos:station:wmo:42369:1,2021-08-02T11:39:00Z,27.2152,-90.2891,2.0,29.9,11111222
BP,ioos:station:wmo:42369:1,2021-08-02T11:59:00Z,27.2152,-90.2891,2.0,29.8,11111222
BP,ioos:station:wmo:42369:1,2021-08-02T12:19:00Z,27.2152,-90.2891,2.0,29.6,11111222
BP,ioos:station:wmo:42369:1,2021-08-02T12:39:00Z,27.2152,-90.2891,2.0,29.6,11111222
BP,ioos:station:wmo:42369:1,2021-08-02T12:59:00Z,27.2152,-90.2892,2.0,29.6,11111222
BP,ioos:station:wmo:42369:1,2021-08-02T13:19:00Z,27.2152,-90.2892,2.0,29.6,11111222
BP,ioos:station:wmo:42369:1,2021-08-02T13:39:00Z,27.2152,-90.2892,2.0,29.8,11111222
BP,ioos:station:wmo:42369:1,2021-08-02T13:59:00Z,27.2152,-90.2892,2.0,29.8,11111222
BP,ioos:station:wmo:42369:1,2021-08-02T14:19:00Z,27.2152,-90.2892,2.0,29.9,11111222
BP,ioos:station:wmo:42369:1,2021-08-02T14:39:00Z,27.2152,-90.2892,2.0,30.1,11111222
BP,ioos:station:wmo:42369:1,2021-08-02T14:59:00Z,27.2153,-90.2890,2.0,30.0,11111222
BP,ioos:station:wmo:42369:1,2021-08-02T15:19:00Z,27.2153,-90.2889,2.0,30.1,11111222
BP,ioos:station:wmo:42369:1,2021-08-02T15:39:00Z,27.2154,-90.2888,2.0,30.0,11111222
BP,ioos:station:wmo:42369:1,2021-08-02T15:59:00Z,27.2154,-90.2887,2.0,30.1,11111222
BP,ioos:station:wmo:42369:1,2021-08-02T16:19:00Z,27.2155,-90.2886,2.0,30.2,11111222
BP,ioos:station:wmo:42369:1,2021-08-02T16:39:00Z,27.2156,-90.2885,2.0,30.2,11111222
BP,ioos:station:wmo:42369:1,2021-08-02T16:59:00Z,27.2158,-90.2883,2.0,30.3,11111222
BP,ioos:station:wmo:42369:1,2021-08-02T17:19:00Z,27.2158,-90.2882,2.0,30.2,11111222
BP,ioos:station:wmo:42369:1,2021-08-02T17:39:00Z,27.2158,-90.2882,2.0,30.2,11111222
BP,ioos:station:wmo:42369:1,2021-08-02T17:59:00Z,27.2157,-90.2883,2.0,30.3,11111222
BP,ioos:station:wmo:42369:1,2021-08-02T18:19:00Z,27.2157,-90.2882,2.0,30.3,11111222
BP,ioos:station:wmo:42369:1,2021-08-02T18:39:00Z,27.2158,-90.2882,2.0,30.3,11111222
BP,ioos:station:wmo:42369:1,2021-08-02T18:59:00Z,27.2158,-90.2881,2.0,30.2,11111222
BP,ioos:station:wmo:42369:1,2021-08-02T19:19:00Z,27.2158,-90.2880,2.0,30.2,11111222
BP,ioos:station:wmo:42369:1,2021-08-02T19:39:00Z,27.2157,-90.2880,2.0,30.2,11111222
BP,ioos:station:wmo:42369:1,2021-08-02T19:59:00Z,27.2157,-90.2880,2.0,30.3,11111222
BP,ioos:station:wmo:42369:1,2021-08-02T20:19:00Z,27.2156,-90.2881,2.0,30.3,11111222
BP,ioos:station:wmo:42369:1,2021-08-02T20:39:00Z,27.2154,-90.2882,2.0,29.9,11111222
BP,ioos:station:wmo:42369:1,2021-08-02T20:59:00Z,27.2153,-90.2884,2.0,29.9,11111222
BP,ioos:station:wmo:42369:1,2021-08-02T21:19:00Z,27.2152,-90.2885,2.0,30.1,11111222
BP,ioos:station:wmo:42369:1,2021-08-02T21:39:00Z,27.2152,-90.2885,2.0,30.1,11111222
BP,ioos:station:wmo:42369:1,2021-08-02T21:59:00Z,27.2153,-90.2883,2.0,30.2,11111222
BP,ioos:station:wmo:42369:1,2021-08-02T22:19:00Z,27.2153,-90.2881,2.0,30.2,11111222
BP,ioos:station:wmo:42369:1,2021-08-02T22:39:00Z,27.2153,-90.2881,2.0,30.2,11111222
BP,ioos:station:wmo:42369:1,2021-08-02T22:59:00Z,27.2152,-90.2881,2.0,30.2,11111222
BP,ioos:station:wmo:42369:1,2021-08-02T23:19:00Z,27.2150,-90.2881,2.0,30.1,11111222
BP,ioos:station:wmo:42369:1,2021-08-02T23:39:00Z,27.2150,-90.2882,2.0,30.1,11111222
BP,ioos:station:wmo:42369:1,2021-08-02T23:59:00Z,27.2149,-90.2882,2.0,30.0,11111222
BP,ioos:station:wmo:42369:1,2021-08-03T00:19:00Z,27.2149,-90.2883,2.0,30.1,11111222
BP,ioos:station:wmo:42369:1,2021-08-03T00:39:00Z,27.2149,-90.2883,2.0,30.2,11111222
BP,ioos:station:wmo:42369:1,2021-08-03T00:59:00Z,27.2148,-90.2884,2.0,30.4,11111222
BP,ioos:station:wmo:42369:1,2021-08-03T01:19:00Z,27.2148,-90.2884,2.0,30.3,11111222
BP,ioos:station:wmo:42369:1,2021-08-03T01:39:00Z,27.2148,-90.2884,2.0,30.4,11111222
BP,ioos:station:wmo:42369:1,2021-08-03T01:59:00Z,27.2149,-90.2884,2.0,30.4,11111222
BP,ioos:station:wmo:42369:1,2021-08-03T02:19:00Z,27.2148,-90.2884,2.0,30.3,11111222
BP,ioos:station:wmo:42369:1,2021-08-03T02:39:00Z,27.2147,-90.2885,2.0,30.2,11111222
BP,ioos:station:wmo:42369:1,2021-08-03T02:59:00Z,27.2147,-90.2886,2.0,30.2,11111222
BP,ioos:station:wmo:42369:1,2021-08-03T03:19:00Z,27.2147,-90.2886,2.0,30.2,11111222
BP,ioos:station:wmo:42369:1,2021-08-03T03:39:00Z,27.2146,-90.2886,2.0,30.2,11111222
BP,ioos:station:wmo:42369:1,2021-08-03T03:59:00Z,27.2145,-90.2887,2.0,30.1,11111222
BP,ioos:station:wmo:42369:1,2021-08-03T04:19:00Z,27.2144,-90.2887,2.0,30.1,11111222
BP,ioos:station:wmo:42369:1,2021-08-03T04:39:00Z,27.2144,-90.2887,2.0,30.1,11111222
BP,ioos:station:wmo:42369:1,2021-08-03T04:59:00Z,27.2144,-90.2886,2.0,30.1,11111222
BP,ioos:station:wmo:42369:1,2021-08-03T05:19:00Z,27.2144,-90.2885,2.0,30.2,11111222
BP,ioos:station:wmo:42369:1,2021-08-03T05:39:00Z,27.2144,-90.2884,2.0,30.1,11111222
BP,ioos:station:wmo:42369:1,2021-08-03T05:59:00Z,27.2144,-90.2884,2.0,30.1,11111222
BP,ioos:station:wmo:42369:1,2021-08-03T06:19:00Z,27.2144,-90.2885,2.0,30.3,11111222
BP,ioos:station:wmo:42369:1,2021-08-03T06:39:00Z,27.2143,-90.2886,2.0,30.3,11111222
BP,ioos:station:wmo:42369:1,2021-08-03T06:59:00Z,27.2143,-90.2886,2.0,30.2,11111222
BP,ioos:station:wmo:42369:1,2021-08-03T07:19:00Z,27.2142,-90.2886,2.0,30.0,11111222
BP,ioos:station:wmo:42369:1,2021-08-03T07:39:00Z,27.2141,-90.2887,2.0,29.9,11111222
BP,ioos:station:wmo:42369:1,2021-08-03T07:59:00Z,27.2140,-90.2888,2.0,30.1,11111222
BP,ioos:station:wmo:42369:1,2021-08-03T08:19:00Z,27.2139,-90.2888,2.0,29.8,11111222
BP,ioos:station:wmo:42369:1,2021-08-03T08:39:00Z,27.2140,-90.2886,2.0,29.7,11111222
BP,ioos:station:wmo:42369:1,2021-08-03T08:59:00Z,27.2141,-90.2885,2.0,29.8,11111222
BP,ioos:station:wmo:42369:1,2021-08-03T09:19:00Z,27.2141,-90.2885,2.0,29.9,11111222
BP,ioos:station:wmo:42369:1,2021-08-03T09:39:00Z,27.2141,-90.2885,2.0,30.0,11111222
BP,ioos:station:wmo:42369:1,2021-08-03T09:59:00Z,27.2140,-90.2886,2.0,30.0,11111222
BP,ioos:station:wmo:42369:1,2021-08-03T10:19:00Z,27.2139,-90.2885,2.0,30.1,11111222
BP,ioos:station:wmo:42369:1,2021-08-03T10:39:00Z,27.2140,-90.2888,2.0,30.3,11111222
BP,ioos:station:wmo:42369:1,2021-08-03T10:59:00Z,27.2138,-90.2886,2.0,30.4,11111222
BP,ioos:station:wmo:42369:1,2021-08-03T11:19:00Z,27.2138,-90.2887,2.0,30.4,11111222
BP,ioos:station:wmo:42369:1,2021-08-03T11:39:00Z,27.2138,-90.2886,2.0,30.4,11111222
BP,ioos:station:wmo:42369:1,2021-08-03T11:59:00Z,27.2137,-90.2886,2.0,30.4,11111222
BP,ioos:station:wmo:42369:1,2021-08-03T12:19:00Z,27.2137,-90.2885,2.0,30.4,11111222
BP,ioos:station:wmo:42369:1,2021-08-03T12:39:00Z,27.2136,-90.2885,2.0,30.4,11111222
BP,ioos:station:wmo:42369:1,2021-08-03T12:59:00Z,27.2136,-90.2884,2.0,30.4,11111222
BP,ioos:station:wmo:42369:1,2021-08-03T13:19:00Z,27.2136,-90.2883,2.0,30.4,11111222
BP,ioos:station:wmo:42369:1,2021-08-03T13:39:00Z,27.2136,-90.2883,2.0,30.4,11111222
BP,ioos:station:wmo:42369:1,2021-08-03T13:59:00Z,27.2135,-90.2883,2.0,30.4,11111222
BP,ioos:station:wmo:42369:1,2021-08-03T14:19:00Z,27.2135,-90.2882,2.0,30.3,11111222
BP,ioos:station:wmo:42369:1,2021-08-03T14:39:00Z,27.2134,-90.2881,2.0,30.3,11111222
BP,ioos:station:wmo:42369:1,2021-08-03T14:59:00Z,27.2134,-90.2880,2.0,30.3,11111222
BP,ioos:station:wmo:42369:1,2021-08-03T15:19:00Z,27.2134,-90.2879,2.0,30.3,11111222
BP,ioos:station:wmo:42369:1,2021-08-03T15:39:00Z,27.2134,-90.2878,2.0,30.3,11111222
BP,ioos:station:wmo:42369:1,2021-08-03T15:59:00Z,27.2134,-90.2877,2.0,30.3,11111222
BP,ioos:station:wmo:42369:1,2021-08-03T16:19:00Z,27.2134,-90.2877,2.0,30.3,11111222
BP,ioos:station:wmo:42369:1,2021-08-03T16:39:00Z,27.2134,-90.2875,2.0,30.3,11111222
BP,ioos:station:wmo:42369:1,2021-08-03T16:59:00Z,27.2135,-90.2874,2.0,30.3,11111222
BP,ioos:station:wmo:42369:1,2021-08-03T17:19:00Z,27.2135,-90.2873,2.0,30.3,11111222
BP,ioos:station:wmo:42369:1,2021-08-03T17:39:00Z,27.2136,-90.2871,2.0,30.3,11111222
BP,ioos:station:wmo:42369:1,2021-08-03T17:59:00Z,27.2137,-90.2871,2.0,30.3,11111222
BP,ioos:station:wmo:42369:1,2021-08-03T18:19:00Z,27.2136,-90.2870,2.0,30.3,11111222
BP,ioos:station:wmo:42369:1,2021-08-03T18:39:00Z,27.2137,-90.2870,2.0,30.4,11111222
BP,ioos:station:wmo:42369:1,2021-08-03T18:59:00Z,27.2136,-90.2870,2.0,30.4,11111222
BP,ioos:station:wmo:42369:1,2021-08-03T19:19:00Z,27.2135,-90.2872,2.0,30.4,11111222
BP,ioos:station:wmo:42369:1,2021-08-03T19:39:00Z,27.2134,-90.2874,2.0,30.5,11111222
BP,ioos:station:wmo:42369:1,2021-08-03T19:59:00Z,27.2133,-90.2875,2.0,30.5,11111222
BP,ioos:station:wmo:42369:1,2021-08-03T20:19:00Z,27.2133,-90.2876,2.0,30.6,11111222
BP,ioos:station:wmo:42369:1,2021-08-03T20:39:00Z,27.2132,-90.2877,2.0,30.6,11111222
BP,ioos:station:wmo:42369:1,2021-08-03T20:59:00Z,27.2132,-90.2876,2.0,30.6,11111222
BP,ioos:station:wmo:42369:1,2021-08-03T21:19:00Z,27.2131,-90.2876,2.0,30.6,11111222
BP,ioos:station:wmo:42369:1,2021-08-03T21:39:00Z,27.2130,-90.2877,2.0,30.6,11111222
BP,ioos:station:wmo:42369:1,2021-08-03T21:59:00Z,27.2129,-90.2878,2.0,30.6,11111222
BP,ioos:station:wmo:42369:1,2021-08-03T22:19:00Z,27.2128,-90.2879,2.0,30.6,11111222
BP,ioos:station:wmo:42369:1,2021-08-03T22:39:00Z,27.2127,-90.2880,2.0,30.5,11111222
BP,ioos:station:wmo:42369:1,2021-08-03T22:59:00Z,27.2126,-90.2882,2.0,30.5,11111222
BP,ioos:station:wmo:42369:1,2021-08-03T23:19:00Z,27.2125,-90.2883,2.0,30.5,11111222
BP,ioos:station:wmo:42369:1,2021-08-03T23:39:00Z,27.2124,-90.2884,2.0,30.5,11111222
BP,ioos:station:wmo:42369:1,2021-08-03T23:59:00Z,27.2123,-90.2884,2.0,30.5,11111222
BP,ioos:station:wmo:42369:1,2021-08-04T00:19:00Z,27.2123,-90.2883,2.0,30.5,11111222
BP,ioos:station:wmo:42369:1,2021-08-04T00:39:00Z,27.2123,-90.2883,2.0,30.5,11111222
BP,ioos:station:wmo:42369:1,2021-08-04T00:59:00Z,27.2123,-90.2882,2.0,30.5,11111222
BP,ioos:station:wmo:42369:1,2021-08-04T01:19:00Z,27.2122,-90.2882,2.0,30.5,11111222
BP,ioos:station:wmo:42369:1,2021-08-04T01:39:00Z,27.2122,-90.2882,2.0,30.5,11111222
BP,ioos:station:wmo:42369:1,2021-08-04T01:59:00Z,27.2122,-90.2883,2.0,30.5,11111222
BP,ioos:station:wmo:42369:1,2021-08-04T02:19:00Z,27.2121,-90.2883,2.0,30.5,11111222
BP,ioos:station:wmo:42369:1,2021-08-04T02:39:00Z,27.2120,-90.2884,2.0,30.5,11111222
BP,ioos:station:wmo:42369:1,2021-08-04T02:59:00Z,27.2120,-90.2884,2.0,30.6,11111222
BP,ioos:station:wmo:42369:1,2021-08-04T03:19:00Z,27.2119,-90.2886,2.0,30.6,11111222
BP,ioos:station:wmo:42369:1,2021-08-04T03:39:00Z,27.2118,-90.2886,2.0,30.6,11111222
BP,ioos:station:wmo:42369:1,2021-08-04T03:59:00Z,27.2118,-90.2887,2.0,30.6,11111222
BP,ioos:station:wmo:42369:1,2021-08-04T04:19:00Z,27.2117,-90.2887,2.0,30.6,11111222
BP,ioos:station:wmo:42369:1,2021-08-04T04:39:00Z,27.2118,-90.2886,2.0,30.6,11111222
BP,ioos:station:wmo:42369:1,2021-08-04T04:59:00Z,27.2119,-90.2886,2.0,30.6,11111222
BP,ioos:station:wmo:42369:1,2021-08-04T05:19:00Z,27.2119,-90.2886,2.0,30.6,11111222
BP,ioos:station:wmo:42369:1,2021-08-04T05:39:00Z,27.2120,-90.2885,2.0,30.5,11111222
BP,ioos:station:wmo:42369:1,2021-08-04T05:59:00Z,27.2123,-90.2882,2.0,30.5,11111222
BP,ioos:station:wmo:42369:1,2021-08-04T06:19:00Z,27.2126,-90.2880,2.0,30.5,11111222
BP,ioos:station:wmo:42369:1,2021-08-04T06:39:00Z,27.2127,-90.2879,2.0,30.5,11111222
BP,ioos:station:wmo:42369:1,2021-08-04T06:59:00Z,27.2128,-90.2878,2.0,30.5,11111222
BP,ioos:station:wmo:42369:1,2021-08-04T07:19:00Z,27.2129,-90.2876,2.0,30.4,11111222
BP,ioos:station:wmo:42369:1,2021-08-04T07:39:00Z,27.2129,-90.2875,2.0,30.4,11111222
BP,ioos:station:wmo:42369:1,2021-08-04T07:59:00Z,27.2129,-90.2875,2.0,30.4,11111222
BP,ioos:station:wmo:42369:1,2021-08-04T08:19:00Z,27.2130,-90.2875,2.0,30.4,11111222
BP,ioos:station:wmo:42369:1,2021-08-04T08:39:00Z,27.2129,-90.2875,2.0,30.4,11111222
BP,ioos:station:wmo:42369:1,2021-08-04T08:59:00Z,27.2128,-90.2875,2.0,30.4,11111222
BP,ioos:station:wmo:42369:1,2021-08-04T09:19:00Z,27.2128,-90.2875,2.0,30.4,11111222
BP,ioos:station:wmo:42369:1,2021-08-04T09:39:00Z,27.2129,-90.2874,2.0,30.4,11111222
BP,ioos:station:wmo:42369:1,2021-08-04T09:59:00Z,27.2130,-90.2874,2.0,30.4,11111222
BP,ioos:station:wmo:42369:1,2021-08-04T10:19:00Z,27.2130,-90.2873,2.0,30.5,11111222
BP,ioos:station:wmo:42369:1,2021-08-04T10:39:00Z,27.2131,-90.2871,2.0,30.5,11111222
BP,ioos:station:wmo:42369:1,2021-08-04T10:59:00Z,27.2131,-90.2869,2.0,30.4,11111222
BP,ioos:station:wmo:42369:1,2021-08-04T11:19:00Z,27.2131,-90.2868,2.0,30.4,11111222
BP,ioos:station:wmo:42369:1,2021-08-04T11:39:00Z,27.2132,-90.2867,2.0,30.4,11111222
BP,ioos:station:wmo:42369:1,2021-08-04T11:59:00Z,27.2132,-90.2867,2.0,30.4,11111222
BP,ioos:station:wmo:42369:1,2021-08-04T12:19:00Z,27.2131,-90.2867,2.0,30.4,11111222
BP,ioos:station:wmo:42369:1,2021-08-04T12:39:00Z,27.2130,-90.2867,2.0,30.4,11111222
BP,ioos:station:wmo:42369:1,2021-08-04T12:59:00Z,27.2130,-90.2866,2.0,30.4,11111222
BP,ioos:station:wmo:42369:1,2021-08-04T13:19:00Z,27.2129,-90.2866,2.0,30.4,11111222
BP,ioos:station:wmo:42369:1,2021-08-04T13:39:00Z,27.2129,-90.2865,2.0,30.4,11111222
BP,ioos:station:wmo:42369:1,2021-08-04T13:59:00Z,27.2128,-90.2865,2.0,30.4,11111222
BP,ioos:station:wmo:42369:1,2021-08-04T14:19:00Z,27.2128,-90.2864,2.0,30.3,11111222
BP,ioos:station:wmo:42369:1,2021-08-04T14:39:00Z,27.2128,-90.2862,2.0,30.3,11111222
BP,ioos:station:wmo:42369:1,2021-08-04T14:59:00Z,27.2128,-90.2862,2.0,30.3,11111222
BP,ioos:station:wmo:42369:1,2021-08-04T15:19:00Z,27.2128,-90.2861,2.0,30.3,11111222
BP,ioos:station:wmo:42369:1,2021-08-04T15:39:00Z,27.2128,-90.2860,2.0,30.3,11111222
BP,ioos:station:wmo:42369:1,2021-08-04T15:59:00Z,27.2128,-90.2860,2.0,30.3,11111222
BP,ioos:station:wmo:42369:1,2021-08-04T16:19:00Z,27.2129,-90.2860,2.0,30.2,11111222
BP,ioos:station:wmo:42369:1,2021-08-04T16:39:00Z,27.2131,-90.2859,2.0,30.2,11111222
BP,ioos:station:wmo:42369:1,2021-08-04T16:59:00Z,27.2134,-90.2852,2.0,30.2,11111222
BP,ioos:station:wmo:42369:1,2021-08-04T17:19:00Z,27.2134,-90.2851,2.0,30.1,11111222
BP,ioos:station:wmo:42369:1,2021-08-04T17:39:00Z,27.2134,-90.2850,2.0,30.1,11111222
BP,ioos:station:wmo:42369:1,2021-08-04T17:59:00Z,27.2135,-90.2849,2.0,30.1,11111222
BP,ioos:station:wmo:42369:1,2021-08-04T18:19:00Z,27.2135,-90.2846,2.0,30.1,11111222
BP,ioos:station:wmo:42369:1,2021-08-04T18:39:00Z,27.2134,-90.2847,2.0,30.1,11111222
BP,ioos:station:wmo:42369:1,2021-08-04T18:59:00Z,27.2134,-90.2849,2.0,30.1,11111222
BP,ioos:station:wmo:42369:1,2021-08-04T19:19:00Z,27.2133,-90.2850,2.0,30.0,11111222
BP,ioos:station:wmo:42369:1,2021-08-04T19:39:00Z,27.2133,-90.2849,2.0,30.0,11111222
BP,ioos:station:wmo:42369:1,2021-08-04T19:59:00Z,27.2134,-90.2846,2.0,30.0,11111222
BP,ioos:station:wmo:42369:1,2021-08-04T20:19:00Z,27.2135,-90.2841,2.0,30.0,11111222
BP,ioos:station:wmo:42369:1,2021-08-04T20:39:00Z,27.2136,-90.2839,2.0,30.0,11111222
BP,ioos:station:wmo:42369:1,2021-08-04T20:59:00Z,27.2136,-90.2836,2.0,30.0,11111222
BP,ioos:station:wmo:42369:1,2021-08-04T21:19:00Z,27.2136,-90.2832,2.0,30.1,11111222
BP,ioos:station:wmo:42369:1,2021-08-04T21:39:00Z,27.2136,-90.2829,2.0,30.0,11111222
BP,ioos:station:wmo:42369:1,2021-08-04T21:59:00Z,27.2137,-90.2825,2.0,30.1,11111222